User: anonymous   Login
Location: Unspecified
(0.0000°N, 0.0000°E)
Time: 08:29:23
(UTC+00:00)
Language:

Explorer 11/Cluster Stage 4 - Orbit

View from above orbital plane
View from above orbital plane
View from above satellite
View from above satellite

Ground track
Ground track

The orbit data is extracted from the following two-line orbital elements,

1   107U 61013A   20093.78769734 +.00000636 +00000-0 +66739-4 0  9994
2   107 028.7862 248.7854 0546765 126.7948 238.4072 14.08920131955544
Epoch (UTC): 02 April 2020 18:54:17
Eccentricity: 0.0546765
inclination: 28.7862°
perigee height: 467 km
apogee height: 1259 km
right ascension of ascending node: 248.7854°
argument of perigee: 126.7948°
revolutions per day: 14.08920131
mean anomaly at epoch: 238.4072°
orbit number at epoch: 95554

The dashed part of the orbit path shows where the satellite is in the earth's shadow,  

DLR